Location: Arbon
(43.0005°N, 0.7472°E)
Time: 10:07:40
(UTC+00:00)

Vanguard 2 Rocket - Pass Details

Date: 02 December 2020
Orbit: 554 x 3325 km, 32.9° (Epoch: 21 January)

Event Time Altitude Azimuth Distance (km) Brightness Sun altitude
Rises 12:15:19 0° 278° (W) 7,220 11.5 24.6°
Reaches altitude 10° 12:21:03 10° 271° (W) 5,992 11.2 24.5°
Maximum altitude 12:35:56 35° 215° (SW) 3,348 11.3 24.0°
Drops below altitude 10° 12:45:49 10° 154° (SSE) 3,974 11.0 23.5°
Sets 12:48:47 0° 145° (SE) 4,618 11.1 23.4°
